| time (UTC) | temp C | wind direction | speed KPH | gust KPH | rain 1hr cm | rain 24hr cm | rain mn cm | humidity % | barometer mb |
| 20260510070050 | 9 | 0 | 0.0 | 6.4 | 0.00 | 3.96 | 0.00 | 87 | 1009.2 |
| 20260510070032 | 9 | 8 | 0.0 | 6.4 | 0.00 | 0.89 | 0.00 | 88 | 1009.4 |
| 20260510064549 | 9 | 96 | 0.0 | 3.2 | 0.00 | 5.69 | 0.00 | 89 | 1009.1 |
| 20260510064533 | 9 | 80 | 1.6 | 4.8 | 0.00 | 0.89 | 0.00 | 90 | 1009.3 |
| 20260510063050 | 10 | 41 | 0.0 | 3.2 | 0.00 | 5.69 | 0.00 | 89 | 1009.0 |
| 20260510063017 | 10 | 344 | 1.6 | 4.8 | 0.00 | 0.91 | 0.00 | 89 | 1009.2 |
| 20260510061552 | 10 | 0 | 0.0 | 1.6 | 0.00 | 5.69 | 0.00 | 88 | 1009.0 |
| 20260510061524 | 10 | 330 | 0.0 | 1.6 | 0.00 | 0.94 | 0.00 | 89 | 1009.2 |
| 20260510060044 | 11 | 0 | 0.0 | 4.8 | 0.00 | 5.69 | 0.00 | 86 | 1008.9 |
| 20260510060031 | 11 | 19 | 0.0 | 4.8 | 0.00 | 1.04 | 0.00 | 88 | 1009.0 |
| 20260510060005 | 11 | 26 | 0.0 | 4.8 | 0.00 | 1.04 | 0.00 | 88 | 1009.2 |
| 20260510054542 | 11 | 0 | 0.0 | 3.2 | 0.00 | 6.58 | 0.00 | 86 | 1008.8 |
| 20260510054531 | 11 | 262 | 0.0 | 4.8 | 0.00 | 1.04 | 0.00 | 87 | 1009.0 |
| 20260510054510 | 11 | 259 | 0.0 | 4.8 | 0.00 | 1.04 | 0.00 | 87 | 1009.0 |
| 20260510053049 | 12 | 0 | 3.2 | 11.3 | 0.00 | 6.58 | 0.00 | 85 | 1008.9 |
| 20260510053023 | 12 | 302 | 3.2 | 16.1 | 0.00 | 1.07 | 0.00 | 85 | 1009.0 |
| 20260510053012 | 12 | 297 | 3.2 | 17.7 | 0.00 | 1.07 | 0.00 | 85 | 1009.1 |
| 20260510051556 | 12 | 0 | 0.0 | 8.0 | 0.00 | 6.58 | 0.00 | 86 | 1008.6 |
| 20260510051521 | 12 | 248 | 4.8 | 11.3 | 0.00 | 1.07 | 0.00 | 86 | 1008.7 |
| 20260510051519 | 12 | 250 | 4.8 | 9.7 | 0.00 | 1.07 | 0.00 | 86 | 1008.7 |
| 20260510050046 | 11 | 322 | 3.2 | 12.9 | 0.00 | 6.58 | 0.00 | 90 | 1007.9 |
| 20260510050023 | 11 | 306 | 8.0 | 16.1 | 0.00 | 1.07 | 0.00 | 91 | 1008.1 |
| 20260510050021 | 11 | 301 | 8.0 | 17.7 | 0.00 | 1.07 | 0.00 | 91 | 1008.2 |
| 20260510044547 | 11 | 0 | 0.0 | 0.0 | 0.00 | 8.56 | 0.00 | 88 | 1007.0 |
| 20260510044526 | 11 | 203 | 0.0 | 1.6 | 0.00 | 1.09 | 0.00 | 89 | 1007.1 |
| 20260510044507 | 11 | 202 | 0.0 | 1.6 | 0.00 | 1.09 | 0.00 | 89 | 1007.2 |
| 20260510043043 | 11 | 0 | 0.0 | 0.0 | 0.00 | 8.56 | 0.00 | 87 | 1006.8 |
| 20260510043014 | 11 | 202 | 0.0 | 1.6 | 0.00 | 1.24 | 0.00 | 88 | 1007.2 |
| 20260510043011 | 11 | 203 | 0.0 | 1.6 | 0.00 | 1.24 | 0.00 | 88 | 1007.1 |
| 20260510041543 | 12 | 0 | 0.0 | 3.2 | 0.00 | 8.56 | 0.00 | 87 | 1006.8 |
| 20260510041520 | 11 | 202 | 0.0 | 6.4 | 0.00 | 1.30 | 0.00 | 88 | 1007.2 |
| 20260510041517 | 11 | 203 | 0.0 | 6.4 | 0.00 | 1.30 | 0.00 | 88 | 1007.1 |
| 20260510040050 | 12 | 0 | 0.0 | 9.7 | 6.53 | 8.56 | 0.00 | 86 | 1007.1 |
| 20260510040020 | 12 | 233 | 4.8 | 9.7 | 0.00 | 1.30 | 0.00 | 86 | 1007.5 |
| 20260510040004 | 12 | 235 | 4.8 | 9.7 | 0.00 | 1.30 | 0.00 | 86 | 1007.4 |
| 20260510034545 | 12 | 0 | 0.0 | 6.4 | 6.53 | 9.22 | 8.56 | 86 | 1006.9 |
| 20260510034524 | 12 | 206 | 3.2 | 8.0 | 0.00 | 1.32 | 1.30 | 86 | 1007.3 |
| 20260510034514 | 12 | 203 | 3.2 | 8.0 | 0.00 | 1.32 | 1.30 | 86 | 1007.2 |
| 20260510033045 | 11 | 0 | 0.0 | 3.2 | 6.53 | 9.22 | 8.56 | 88 | 1006.8 |
| 20260510033016 | 11 | 256 | 1.6 | 4.8 | 0.00 | 1.37 | 1.30 | 88 | 1007.1 |
| 20260510033009 | 11 | 253 | 1.6 | 4.8 | 0.00 | 1.37 | 1.30 | 88 | 1007.1 |
| 20260510031545 | 12 | 0 | 0.0 | 1.6 | 6.53 | 9.22 | 8.56 | 87 | 1006.6 |
| 20260510031516 | 11 | 226 | 0.0 | 4.8 | 0.00 | 1.37 | 1.30 | 88 | 1007.0 |
| 20260510030052 | 12 | 0 | 0.0 | 9.7 | 0.00 | 8.56 | 7.90 | 87 | 1006.9 |
| 20260510030024 | 12 | 240 | 0.0 | 14.5 | 0.00 | 1.37 | 1.30 | 87 | 1007.3 |
| 20260510024550 | 11 | 253 | 0.0 | 8.0 | 0.00 | 8.89 | 7.90 | 90 | 1007.4 |
| 20260510024520 | 11 | 217 | 6.4 | 14.5 | 0.00 | 1.37 | 1.30 | 90 | 1007.8 |
| 20260510024504 | 11 | 219 | 6.4 | 14.5 | 0.00 | 1.37 | 1.30 | 90 | 1007.8 |
| 20260510023050 | 11 | 0 | 0.0 | 1.6 | 0.00 | 8.89 | 7.90 | 89 | 1006.6 |
| 20260510023024 | 11 | 202 | 1.6 | 1.6 | 0.00 | 1.37 | 1.30 | 89 | 1006.8 |
| 20260510023004 | 11 | 203 | 1.6 | 1.6 | 0.00 | 1.37 | 1.30 | 89 | 1006.6 |
| 20260510021546 | 11 | 0 | 0.0 | 3.2 | 0.00 | 8.89 | 7.90 | 89 | 1006.7 |
| 20260510021518 | 11 | 237 | 1.6 | 6.4 | 0.00 | 1.37 | 1.30 | 89 | 1007.0 |
| 20260510021511 | 11 | 235 | 1.6 | 6.4 | 0.00 | 1.37 | 1.30 | 89 | 1007.1 |
| 20260510020046 | 11 | 0 | 0.0 | 3.2 | 0.00 | 8.89 | 7.90 | 89 | 1006.6 |
| 20260510020017 | 11 | 203 | 1.6 | 4.8 | 0.00 | 1.37 | 1.30 | 89 | 1006.9 |
| 20260510014551 | 11 | 0 | 0.0 | 3.2 | 0.00 | 10.52 | 7.90 | 89 | 1006.7 |
| 20260510014521 | 11 | 203 | 0.0 | 6.4 | 0.00 | 1.40 | 1.30 | 89 | 1006.9 |
| 20260510013040 | 11 | 0 | 0.0 | 3.2 | 0.00 | 10.52 | 7.90 | 89 | 1006.6 |
| 20260510013020 | 11 | 202 | 0.0 | 4.8 | 0.00 | 1.40 | 1.30 | 90 | 1006.8 |
| 20260510013005 | 11 | 203 | 0.0 | 4.8 | 0.00 | 1.40 | 1.30 | 90 | 1006.7 |
| 20260510011548 | 11 | 0 | 0.0 | 3.2 | 0.00 | 10.52 | 7.90 | 89 | 1006.4 |
| 20260510011524 | 11 | 235 | 3.2 | 8.0 | 0.00 | 1.40 | 1.30 | 89 | 1006.5 |
| 20260510011510 | 11 | 237 | 3.2 | 8.0 | 0.00 | 1.40 | 1.30 | 89 | 1006.4 |
| 20260510010047 | 11 | 0 | 0.0 | 3.2 | 0.00 | 10.52 | 7.90 | 89 | 1006.1 |
| 20260510010013 | 11 | 216 | 1.6 | 4.8 | 0.00 | 1.42 | 1.30 | 89 | 1006.3 |
| 20260510004550 | 12 | 0 | 0.0 | 3.2 | 3.25 | 12.83 | 7.90 | 90 | 1006.1 |
| 20260510004517 | 12 | 238 | 1.6 | 3.2 | 0.03 | 1.45 | 1.30 | 90 | 1006.4 |
| 20260510003047 | 12 | 0 | 0.0 | 3.2 | 6.53 | 12.83 | 7.90 | 89 | 1006.1 |
| 20260510003023 | 12 | 253 | 3.2 | 8.0 | 0.03 | 1.52 | 1.30 | 89 | 1006.4 |
| 20260510001543 | 12 | 0 | 0.0 | 6.4 | 13.03 | 12.83 | 7.90 | 89 | 1006.1 |
| 20260510001524 | 12 | 240 | 3.2 | 9.7 | 0.05 | 1.55 | 1.30 | 89 | 1006.4 |
| 20260510001505 | 12 | 243 | 3.2 | 9.7 | 0.05 | 1.55 | 1.30 | 89 | 1006.3 |
| 20260510000045 | 12 | 0 | 0.0 | 4.8 | 19.91 | 12.83 | 7.90 | 91 | 1006.0 |
| 20260510000026 | 12 | 274 | 6.4 | 14.5 | 0.71 | 1.63 | 1.30 | 90 | 1006.1 |
| 20260510000009 | 12 | 279 | 6.4 | 12.9 | 0.71 | 1.63 | 1.30 | 90 | 1006.1 |
| 20260509234549 | 11 | 0 | 0.0 | 4.8 | 13.59 | 14.45 | 7.26 | 90 | 1006.1 |
| 20260509234529 | 12 | 257 | 3.2 | 8.0 | 0.84 | 1.65 | 1.27 | 90 | 1006.2 |
| 20260509234525 | 12 | 254 | 3.2 | 8.0 | 0.84 | 1.65 | 1.27 | 90 | 1006.3 |
| 20260509233048 | 11 | 0 | 0.0 | 6.4 | 13.56 | 14.45 | 7.24 | 90 | 1006.3 |
| 20260509233017 | 11 | 252 | 3.2 | 8.0 | 0.84 | 1.70 | 1.27 | 90 | 1006.3 |
| 20260509231546 | 11 | 298 | 6.4 | 19.3 | 7.06 | 13.82 | 6.60 | 88 | 1006.4 |
| 20260509231524 | 11 | 281 | 9.7 | 20.9 | 0.81 | 1.73 | 1.24 | 88 | 1006.5 |
| 20260509230052 | 13 | 359 | 8.0 | 22.5 | 0.15 | 13.11 | 5.92 | 75 | 1006.3 |
| 20260509230026 | 14 | 290 | 12.9 | 37.0 | 0.15 | 1.09 | 0.58 | 76 | 1006.4 |
| 20260509230007 | 14 | 266 | 11.3 | 33.8 | 0.15 | 1.09 | 0.58 | 76 | 1006.3 |
| 20260509224555 | 18 | 270 | 0.0 | 14.5 | 0.00 | 14.43 | 5.89 | 53 | 1003.9 |
| 20260509224528 | 18 | 208 | 9.7 | 19.3 | 0.00 | 0.97 | 0.43 | 52 | 1003.9 |
| 20260509224526 | 18 | 230 | 9.7 | 16.1 | 0.00 | 0.97 | 0.43 | 52 | 1003.9 |
| 20260509223051 | 18 | 290 | 6.4 | 20.9 | 0.00 | 14.43 | 5.89 | 51 | 1003.8 |
| 20260509223018 | 18 | 168 | 12.9 | 35.4 | 0.00 | 1.02 | 0.43 | 50 | 1003.9 |
| 20260509223016 | 18 | 167 | 11.3 | 29.0 | 0.00 | 1.02 | 0.43 | 50 | 1003.9 |
| 20260509221550 | 18 | 249 | 11.3 | 20.9 | 0.00 | 14.43 | 5.89 | 52 | 1003.7 |
| 20260509221520 | 18 | 167 | 9.7 | 27.4 | 0.00 | 1.09 | 0.43 | 51 | 1003.7 |
| 20260509220049 | 19 | 245 | 11.3 | 20.9 | 0.00 | 14.43 | 5.89 | 50 | 1003.5 |
| 20260509220024 | 19 | 167 | 12.9 | 24.1 | 0.00 | 1.09 | 0.43 | 49 | 1003.5 |
| 20260509220010 | 19 | 168 | 14.5 | 25.7 | 0.00 | 1.09 | 0.43 | 49 | 1003.6 |
| 20260509214543 | 20 | 239 | 11.3 | 20.9 | 0.00 | 14.43 | 5.89 | 50 | 1003.3 |
| 20260509214511 | 20 | 203 | 14.5 | 29.0 | 0.00 | 1.12 | 0.43 | 48 | 1003.4 |
| 20260509214507 | 20 | 202 | 14.5 | 27.4 | 0.00 | 1.12 | 0.43 | 48 | 1003.4 |
| 20260509213057 | 20 | 262 | 4.8 | 22.5 | 0.00 | 14.43 | 5.89 | 53 | 1003.3 |
| 20260509213016 | 20 | 204 | 9.7 | 32.2 | 0.00 | 1.12 | 0.43 | 50 | 1003.4 |
| 20260509213012 | 20 | 203 | 9.7 | 30.6 | 0.00 | 1.12 | 0.43 | 50 | 1003.3 |
| 20260509211552 | 20 | 181 | 14.5 | 20.9 | 0.00 | 14.43 | 5.89 | 50 | 1003.5 |
| 20260509211520 | 20 | 203 | 17.7 | 32.2 | 0.00 | 1.12 | 0.43 | 50 | 1003.6 |
| 20260509211503 | 20 | 202 | 19.3 | 32.2 | 0.00 | 1.12 | 0.43 | 50 | 1003.6 |
| 20260509210058 | 20 | 175 | 9.7 | 20.9 | 0.00 | 14.43 | 5.89 | 53 | 1003.9 |
| 20260509210025 | 20 | 220 | 9.7 | 25.7 | 0.00 | 1.12 | 0.43 | 51 | 1004.0 |
| 20260509210002 | 20 | 260 | 11.3 | 27.4 | 0.00 | 1.12 | 0.43 | 51 | 1004.0 |
| 20260509204550 | 20 | 265 | 0.0 | 24.1 | 0.00 | 14.43 | 5.89 | 55 | 1004.1 |
| 20260509204524 | 20 | 167 | 9.7 | 35.4 | 0.00 | 1.12 | 0.43 | 53 | 1004.2 |
| 20260509203042 | 19 | 243 | 11.3 | 20.9 | 0.00 | 14.43 | 5.89 | 53 | 1004.3 |
| 20260509203012 | 19 | 167 | 11.3 | 29.0 | 0.00 | 1.12 | 0.43 | 53 | 1004.4 |
| 20260509201549 | 19 | 0 | 3.2 | 22.5 | 0.00 | 14.43 | 5.89 | 55 | 1004.4 |
| 20260509201516 | 20 | 167 | 8.0 | 30.6 | 0.00 | 1.12 | 0.43 | 54 | 1004.6 |
| 20260509200100 | 19 | 278 | 9.7 | 29.0 | 0.00 | 14.43 | 5.89 | 56 | 1004.5 |
| 20260509200022 | 19 | 233 | 11.3 | 30.6 | 0.00 | 1.12 | 0.43 | 55 | 1004.5 |
| 20260509194545 | 18 | 252 | 9.7 | 19.3 | 0.00 | 14.43 | 5.89 | 55 | 1005.0 |
| 20260509194527 | 19 | 167 | 11.3 | 20.9 | 0.00 | 1.12 | 0.43 | 53 | 1005.0 |
| 20260509194506 | 19 | 168 | 14.5 | 25.7 | 0.00 | 1.12 | 0.43 | 53 | 1005.1 |
| 20260509193045 | 18 | 278 | 9.7 | 20.9 | 0.00 | 14.43 | 5.89 | 57 | 1005.1 |
| 20260509193012 | 18 | 203 | 11.3 | 24.1 | 0.00 | 1.12 | 0.43 | 56 | 1005.2 |
| 20260509193007 | 18 | 202 | 12.9 | 25.7 | 0.00 | 1.12 | 0.43 | 56 | 1005.3 |
| 20260509191546 | 18 | 167 | 11.3 | 22.5 | 0.00 | 14.43 | 5.89 | 56 | 1005.4 |
| 20260509191519 | 18 | 168 | 19.3 | 37.0 | 0.00 | 1.12 | 0.43 | 56 | 1005.7 |
| 20260509191515 | 18 | 167 | 16.1 | 30.6 | 0.00 | 1.12 | 0.43 | 56 | 1005.5 |
| 20260509190046 | 18 | 241 | 8.0 | 17.7 | 0.00 | 14.43 | 5.89 | 60 | 1005.4 |
| 20260509190021 | 18 | 167 | 8.0 | 22.5 | 0.00 | 1.12 | 0.43 | 58 | 1005.4 |
| 20260509184554 | 17 | 266 | 9.7 | 19.3 | 0.00 | 14.43 | 5.89 | 59 | 1005.5 |
| 20260509184511 | 17 | 167 | 9.7 | 20.9 | 0.00 | 1.12 | 0.43 | 56 | 1005.6 |
| 20260509184503 | 17 | 168 | 12.9 | 25.7 | 0.00 | 1.12 | 0.43 | 56 | 1005.7 |
| 20260509183048 | 18 | 293 | 6.4 | 20.9 | 0.00 | 14.43 | 5.89 | 60 | 1005.4 |
| 20260509183009 | 18 | 167 | 8.0 | 19.3 | 0.00 | 1.12 | 0.43 | 60 | 1005.5 |
| 20260509181557 | 18 | 264 | 8.0 | 22.5 | 0.00 | 14.43 | 5.89 | 59 | 1005.4 |
| 20260509181515 | 18 | 114 | 8.0 | 32.2 | 0.00 | 1.12 | 0.43 | 60 | 1005.5 |
| 20260509180048 | 18 | 292 | 9.7 | 17.7 | 0.00 | 14.43 | 5.89 | 58 | 1005.5 |
| 20260509180019 | 18 | 168 | 14.5 | 24.1 | 0.00 | 1.12 | 0.43 | 57 | 1005.8 |
| 20260509174546 | 17 | 274 | 8.0 | 19.3 | 0.00 | 14.43 | 5.89 | 59 | 1005.6 |
| 20260509174527 | 18 | 167 | 9.7 | 20.9 | 0.00 | 1.12 | 0.43 | 61 | 1005.7 |
| 20260509174522 | 18 | 168 | 11.3 | 25.7 | 0.00 | 1.12 | 0.43 | 61 | 1005.8 |
| 20260509173048 | 17 | 260 | 9.7 | 19.3 | 0.00 | 14.43 | 5.89 | 59 | 1005.6 |
| 20260509173007 | 17 | 257 | 11.3 | 20.9 | 0.00 | 1.12 | 0.43 | 59 | 1005.7 |
| 20260509171551 | 17 | 276 | 9.7 | 17.7 | 0.00 | 14.43 | 5.89 | 63 | 1005.6 |
| 20260509171511 | 17 | 224 | 11.3 | 22.5 | 0.00 | 1.12 | 0.43 | 61 | 1005.9 |
| 20260509170050 | 16 | 283 | 8.0 | 19.3 | 0.00 | 14.43 | 5.89 | 67 | 1005.5 |
| 20260509170028 | 16 | 167 | 9.7 | 20.9 | 0.00 | 1.12 | 0.43 | 67 | 1005.6 |
| 20260509170016 | 16 | 168 | 12.9 | 22.5 | 0.00 | 1.12 | 0.43 | 67 | 1005.8 |
| 20260509164545 | 16 | 0 | 0.0 | 11.3 | 0.00 | 14.43 | 5.89 | 70 | 1005.7 |
| 20260509164533 | 16 | 215 | 8.0 | 16.1 | 0.00 | 1.12 | 0.43 | 68 | 1006.0 |
| 20260509164520 | 16 | 216 | 8.0 | 16.1 | 0.00 | 1.12 | 0.43 | 68 | 1005.9 |
| 20260509163043 | 15 | 0 | 0.0 | 6.4 | 0.00 | 14.43 | 5.89 | 72 | 1006.0 |
| 20260509163026 | 15 | 248 | 6.4 | 19.3 | 0.00 | 1.12 | 0.43 | 72 | 1006.1 |
| 20260509163004 | 15 | 228 | 6.4 | 20.9 | 0.00 | 1.12 | 0.43 | 72 | 1006.2 |
| 20260509161541 | 15 | 261 | 4.8 | 16.1 | 0.00 | 14.43 | 5.89 | 73 | 1006.2 |
| 20260509161508 | 15 | 229 | 6.4 | 17.7 | 0.00 | 1.12 | 0.43 | 72 | 1006.5 |
| 20260509161506 | 15 | 227 | 6.4 | 19.3 | 0.00 | 1.12 | 0.43 | 72 | 1006.5 |
| 20260509160041 | 15 | 257 | 8.0 | 17.7 | 0.00 | 14.43 | 5.89 | 74 | 1006.4 |
| 20260509160012 | 16 | 283 | 9.7 | 22.5 | 0.00 | 1.12 | 0.43 | 73 | 1006.6 |
| 20260509160010 | 16 | 279 | 9.7 | 24.1 | 0.00 | 1.12 | 0.43 | 73 | 1006.7 |
| 20260509154548 | 15 | 0 | 0.0 | 8.0 | 0.00 | 14.43 | 5.89 | 78 | 1006.3 |
| 20260509154518 | 15 | 245 | 8.0 | 16.1 | 0.00 | 1.12 | 0.43 | 77 | 1006.6 |
| 20260509154516 | 15 | 243 | 9.7 | 16.1 | 0.00 | 1.12 | 0.43 | 77 | 1006.6 |
| 20260509153059 | 13 | 0 | 0.0 | 14.5 | 0.00 | 14.43 | 5.89 | 79 | 1006.1 |
| 20260509153032 | 14 | 242 | 4.8 | 19.3 | 0.00 | 1.12 | 0.43 | 78 | 1006.5 |
| 20260509153028 | 14 | 244 | 4.8 | 17.7 | 0.00 | 1.12 | 0.43 | 78 | 1006.4 |
| 20260509151549 | 14 | 306 | 4.8 | 14.5 | 0.00 | 14.43 | 5.89 | 81 | 1006.2 |
| 20260509151525 | 14 | 216 | 8.0 | 19.3 | 0.00 | 1.12 | 0.43 | 80 | 1006.5 |
| 20260509151504 | 14 | 242 | 8.0 | 20.9 | 0.00 | 1.12 | 0.43 | 79 | 1006.6 |
| 20260509150048 | 13 | 0 | 0.0 | 14.5 | 0.00 | 14.43 | 5.89 | 84 | 1006.2 |
| 20260509150011 | 13 | 309 | 6.4 | 14.5 | 0.00 | 1.12 | 0.43 | 83 | 1006.6 |
| 20260509144557 | 13 | 0 | 0.0 | 8.0 | 0.00 | 14.43 | 5.89 | 85 | 1006.2 |
| 20260509144517 | 13 | 245 | 8.0 | 14.5 | 0.00 | 1.12 | 0.43 | 85 | 1006.7 |
| 20260509143054 | 12 | 0 | 0.0 | 8.0 | 0.00 | 14.43 | 5.89 | 89 | 1006.1 |
| 20260509143020 | 12 | 244 | 3.2 | 8.0 | 0.00 | 1.12 | 0.43 | 89 | 1006.6 |
| 20260509141548 | 12 | 0 | 0.0 | 8.0 | 0.00 | 14.43 | 5.89 | 90 | 1006.2 |
| 20260509141537 | 12 | 267 | 4.8 | 9.7 | 0.00 | 1.12 | 0.43 | 90 | 1006.6 |
| 20260509140052 | 11 | 0 | 0.0 | 8.0 | 0.00 | 14.43 | 5.89 | 91 | 1006.1 |
| 20260509140028 | 11 | 243 | 3.2 | 12.9 | 0.00 | 1.12 | 0.43 | 91 | 1006.5 |
| 20260509140009 | 11 | 242 | 3.2 | 12.9 | 0.00 | 1.12 | 0.43 | 91 | 1006.6 |
| 20260509134545 | 11 | 0 | 0.0 | 6.4 | 0.00 | 15.06 | 5.89 | 91 | 1006.1 |
| 20260509134524 | 11 | 237 | 4.8 | 11.3 | 0.00 | 1.12 | 0.43 | 91 | 1006.5 |
| 20260509134513 | 11 | 235 | 4.8 | 11.3 | 0.00 | 1.12 | 0.43 | 91 | 1006.6 |
| 20260509133046 | 11 | 0 | 0.0 | 8.0 | 0.00 | 15.06 | 5.89 | 92 | 1006.2 |
| 20260509133019 | 11 | 238 | 4.8 | 11.3 | 0.00 | 1.12 | 0.43 | 92 | 1006.5 |
| 20260509133016 | 11 | 236 | 4.8 | 11.3 | 0.00 | 1.12 | 0.43 | 92 | 1006.6 |
| 20260509131546 | 11 | 0 | 0.0 | 14.5 | 0.00 | 15.06 | 5.89 | 92 | 1006.1 |
| 20260509131527 | 11 | 211 | 4.8 | 14.5 | 0.00 | 1.14 | 0.43 | 92 | 1006.5 |
| 20260509131522 | 11 | 210 | 4.8 | 14.5 | 0.00 | 1.14 | 0.43 | 92 | 1006.6 |
| 20260509130043 | 11 | 0 | 0.0 | 3.2 | 0.00 | 15.06 | 5.89 | 93 | 1006.2 |
| 20260509130026 | 11 | 203 | 4.8 | 12.9 | 0.00 | 1.19 | 0.43 | 92 | 1006.6 |
| 20260509130023 | 11 | 202 | 4.8 | 12.9 | 0.00 | 1.19 | 0.43 | 92 | 1006.7 |
| 20260509124541 | 11 | 0 | 0.0 | 4.8 | 0.00 | 16.05 | 5.89 | 93 | 1006.4 |
| 20260509124526 | 11 | 233 | 4.8 | 11.3 | 0.00 | 1.19 | 0.43 | 93 | 1006.7 |
| 20260509124507 | 11 | 234 | 4.8 | 12.9 | 0.00 | 1.19 | 0.43 | 93 | 1006.9 |
| 20260509123047 | 11 | 0 | 0.0 | 4.8 | 0.00 | 16.05 | 5.89 | 93 | 1006.7 |
| 20260509123019 | 11 | 220 | 3.2 | 9.7 | 0.00 | 1.19 | 0.43 | 93 | 1007.0 |
| 20260509123015 | 11 | 221 | 3.2 | 9.7 | 0.00 | 1.19 | 0.43 | 93 | 1006.9 |
| 20260509121548 | 10 | 0 | 0.0 | 6.4 | 0.00 | 16.05 | 5.89 | 93 | 1006.7 |
| 20260509121525 | 11 | 229 | 3.2 | 9.7 | 0.00 | 1.19 | 0.43 | 94 | 1006.9 |
| 20260509121516 | 11 | 227 | 3.2 | 9.7 | 0.00 | 1.19 | 0.43 | 94 | 1006.9 |
| 20260509120058 | 10 | 0 | 0.0 | 4.8 | 0.00 | 16.05 | 5.89 | 94 | 1006.7 |
| 20260509120025 | 10 | 202 | 1.6 | 14.5 | 0.00 | 1.22 | 0.43 | 94 | 1007.0 |
| 20260509114540 | 10 | 0 | 0.0 | 6.4 | 0.00 | 16.05 | 5.89 | 94 | 1006.7 |
| 20260509114528 | 10 | 223 | 1.6 | 11.3 | 0.00 | 1.27 | 0.43 | 94 | 1007.0 |
| 20260509114524 | 10 | 221 | 1.6 | 12.9 | 0.00 | 1.27 | 0.43 | 94 | 1007.0 |
| 20260509113045 | 10 | 0 | 0.0 | 6.4 | 0.00 | 16.05 | 5.89 | 94 | 1006.6 |
| 20260509113028 | 10 | 226 | 1.6 | 11.3 | 0.00 | 1.27 | 0.43 | 94 | 1006.9 |
| 20260509113009 | 10 | 238 | 1.6 | 11.3 | 0.00 | 1.27 | 0.43 | 94 | 1006.9 |
| 20260509111544 | 10 | 0 | 0.0 | 4.8 | 0.00 | 16.05 | 5.89 | 94 | 1006.6 |
| 20260509111517 | 10 | 217 | 3.2 | 8.0 | 0.00 | 1.27 | 0.43 | 94 | 1006.9 |
| 20260509111515 | 10 | 215 | 3.2 | 8.0 | 0.00 | 1.27 | 0.43 | 94 | 1006.9 |
| 20260509110047 | 10 | 0 | 0.0 | 6.4 | 0.00 | 16.05 | 5.89 | 94 | 1006.5 |
| 20260509110022 | 10 | 203 | 3.2 | 8.0 | 0.00 | 1.27 | 0.43 | 94 | 1006.7 |
| 20260509104551 | 10 | 0 | 0.0 | 3.2 | 6.50 | 16.05 | 5.89 | 94 | 1006.4 |
| 20260509104524 | 10 | 221 | 1.6 | 6.4 | 0.00 | 1.27 | 0.43 | 94 | 1006.7 |
| 20260509104522 | 10 | 222 | 1.6 | 6.4 | 0.00 | 1.27 | 0.43 | 94 | 1006.6 |
| 20260509103051 | 10 | 0 | 0.0 | 3.2 | 6.53 | 16.05 | 5.89 | 94 | 1006.4 |
| 20260509103029 | 10 | 202 | 0.0 | 6.4 | 0.00 | 1.27 | 0.43 | 94 | 1006.7 |
| 20260509103025 | 10 | 203 | 0.0 | 6.4 | 0.00 | 1.27 | 0.43 | 94 | 1006.6 |
| 20260509101553 | 10 | 0 | 0.0 | 4.8 | 6.53 | 16.05 | 5.89 | 93 | 1006.4 |
| 20260509101526 | 10 | 203 | 1.6 | 8.0 | 0.00 | 1.27 | 0.43 | 94 | 1006.6 |
| 20260509101515 | 10 | 202 | 1.6 | 8.0 | 0.00 | 1.27 | 0.43 | 94 | 1006.7 |
| 20260509100048 | 10 | 0 | 0.0 | 6.4 | 6.53 | 16.05 | 5.89 | 93 | 1006.5 |
| 20260509100021 | 10 | 205 | 3.2 | 11.3 | 0.00 | 1.27 | 0.43 | 94 | 1006.8 |
| 20260509100016 | 10 | 205 | 3.2 | 11.3 | 0.00 | 1.27 | 0.43 | 94 | 1006.8 |
| 20260509094545 | 10 | 0 | 0.0 | 6.4 | 0.03 | 15.39 | 5.23 | 93 | 1006.6 |
| 20260509094529 | 10 | 203 | 3.2 | 8.0 | 0.00 | 1.27 | 0.43 | 94 | 1006.9 |
| 20260509094527 | 10 | 202 | 3.2 | 8.0 | 0.00 | 1.27 | 0.43 | 94 | 1007.0 |
| 20260509093046 | 10 | 0 | 0.0 | 8.0 | 0.00 | 15.39 | 5.23 | 93 | 1006.7 |
| 20260509093025 | 10 | 205 | 4.8 | 11.3 | 0.00 | 1.27 | 0.43 | 94 | 1006.9 |
| 20260509093008 | 10 | 227 | 4.8 | 11.3 | 0.00 | 1.27 | 0.43 | 94 | 1006.9 |
| 20260509091553 | 10 | 0 | 0.0 | 11.3 | 0.00 | 15.39 | 5.23 | 93 | 1006.8 |
| 20260509091530 | 10 | 210 | 3.2 | 14.5 | 0.00 | 1.27 | 0.43 | 94 | 1007.1 |
| 20260509091507 | 10 | 202 | 3.2 | 14.5 | 0.00 | 1.27 | 0.43 | 94 | 1007.1 |
| 20260509090049 | 10 | 0 | 0.0 | 3.2 | 0.00 | 15.39 | 5.23 | 94 | 1006.9 |
| 20260509090014 | 10 | 227 | 1.6 | 8.0 | 0.03 | 1.27 | 0.43 | 94 | 1007.3 |
| 20260509084549 | 10 | 0 | 0.0 | 3.2 | 0.00 | 15.39 | 5.23 | 94 | 1007.0 |
| 20260509084520 | 10 | 213 | 1.6 | 6.4 | 0.03 | 1.27 | 0.43 | 94 | 1007.3 |
| 20260509083052 | 10 | 252 | 0.0 | 4.8 | 0.00 | 15.39 | 5.23 | 94 | 1007.1 |
| 20260509083024 | 10 | 149 | 3.2 | 11.3 | 0.03 | 1.27 | 0.43 | 94 | 1007.4 |
| 20260509081546 | 10 | 0 | 0.0 | 4.8 | 0.00 | 15.39 | 5.23 | 94 | 1007.1 |
| 20260509081530 | 10 | 167 | 1.6 | 6.4 | 0.03 | 1.27 | 0.43 | 94 | 1007.3 |
| 20260509081507 | 10 | 168 | 1.6 | 8.0 | 0.03 | 1.27 | 0.43 | 94 | 1007.4 |
| 20260509080051 | 10 | 0 | 0.0 | 4.8 | 6.53 | 15.39 | 5.23 | 93 | 1007.1 |
| 20260509080026 | 10 | 167 | 1.6 | 8.0 | 0.00 | 1.24 | 0.41 | 94 | 1007.4 |
| 20260509080014 | 10 | 168 | 1.6 | 9.7 | 0.00 | 1.24 | 0.41 | 94 | 1007.4 |
| 20260509074554 | 10 | 0 | 0.0 | 3.2 | 6.53 | 15.39 | 5.23 | 93 | 1007.2 |
| 20260509074517 | 10 | 167 | 1.6 | 6.4 | 0.00 | 1.24 | 0.41 | 94 | 1007.4 |
| 20260509073115 | 10 | 276 | 0.0 | 6.4 | 9.78 | 15.39 | 5.23 | 93 | 1007.2 |
| 20260509073030 | 10 | 168 | 1.6 | 9.7 | 0.03 | 1.24 | 0.41 | 94 | 1007.6 |
| 20260509073008 | 10 | 167 | 1.6 | 8.0 | 0.03 | 1.24 | 0.41 | 94 | 1007.6 |
| 20260509071547 | 10 | 0 | 0.0 | 3.2 | 16.33 | 15.39 | 5.23 | 93 | 1007.4 |
| 20260509071522 | 10 | 168 | 3.2 | 12.9 | 0.05 | 1.24 | 0.41 | 94 | 1007.7 |
| 20260509071505 | 10 | 167 | 3.2 | 11.3 | 0.05 | 1.24 | 0.41 | 94 | 1007.7 |